Weather History for Aurora, CO

Change the Weather History Date:

Sunday, April 7, 2013

  Actual Average Record
Temperature  
Mean Temperature 48 °F -  
Max Temperature 62 °F 55 °F 71 °F (2005)
Min Temperature 35 °F 31 °F 23 °F (2007)
Degree Days  
Heating Degree Days 16    
Moisture  
Dew Point 27 °F    
Average Humidity 46    
Maximum Humidity 100    
Minimum Humidity 20    
Precipitation  
Precipitation 0.00 in - - ()
Sea Level Pressure  
Sea Level Pressure 29.67 in    
Wind  
Wind Speed 13 mph (WSW)    
Max Wind Speed 22 mph    
Max Gust Speed 28 mph    
Visibility 10 miles    
Events      
Averages and records for this station are not official NWS values.
T = Trace of Precipitation, MM = Missing Value Source: NWS Daily Summary

Daily Weather History Graph

Daily Weather History Graph

Search for Another Location

Airport:

Trip Planner

Search our weather history database for the weather conditions in past years. The results will help you decide how hot, cold, wet, or windy it might be!

Date:

Astronomy

Apr. 07, 2013 Rise Set
Actual Time 6:33 AM MDT 7:29 PM MDT
Civil Twilight 6:05 AM MDT 7:56 PM MDT
Nautical Twilight 5:33 AM MDT 8:29 PM MDT
Astronomical Twilight 4:59 AM MDT 9:03 PM MDT
Moon 4:51 AM MDT (4/7) 5:04 PM MDT (4/7)
Length of Visible Light 13h 51m
Length of Day
12h 56m
Waning Crescent, 8% of the Moon is Illuminated
Apr 7
Waning Crescent
Apr 10
New
Apr 18
First Quarter
Apr 25
Full
May 2
Last Quarter

Hourly Weather History & Observations

Time (MDT) Temp. Windchill Dew Point Humidity Pressure Visibility Wind Dir Wind Speed Gust Speed Precip Events Conditions
12:55 AM 48.2 °F - 32.0 °F 54% 29.75 in 10.0 mi South 19.6 mph - N/A   Overcast
1:55 AM 46.4 °F 39.8 °F 32.0 °F 57% 29.72 in 10.0 mi South 16.1 mph - N/A   Mostly Cloudy
2:55 AM 44.6 °F 37.4 °F 32.0 °F 61% 29.70 in 10.0 mi SW 16.1 mph - N/A   Mostly Cloudy
3:55 AM 42.8 °F 41.1 °F 32.0 °F 66% 29.72 in 10.0 mi NNW 3.5 mph - N/A   Scattered Clouds
4:55 AM 41.0 °F 35.8 °F 30.2 °F 65% 29.74 in 10.0 mi NW 8.1 mph - N/A   Partly Cloudy
5:55 AM 37.4 °F 33.8 °F 37.4 °F 100% 29.75 in 10.0 mi NE 4.6 mph - N/A   Mostly Cloudy
6:55 AM 35.6 °F 28.6 °F 35.6 °F 100% 29.77 in 70.0 mi South 9.2 mph - N/A   Mostly Cloudy
7:55 AM 42.8 °F 40.1 °F 37.4 °F 81% 29.75 in 70.0 mi SW 4.6 mph - N/A   Scattered Clouds
8:55 AM 48.2 °F - 32.0 °F 54% 29.73 in 70.0 mi WSW 9.2 mph - N/A   Scattered Clouds
9:55 AM 53.6 °F - 26.6 °F 35% 29.69 in 70.0 mi SW 10.4 mph - N/A   Scattered Clouds
10:55 AM 57.2 °F - 23.0 °F 27% 29.68 in 70.0 mi SW 21.9 mph - N/A   Partly Cloudy
11:55 AM 60.8 °F - 19.4 °F 20% 29.66 in 70.0 mi West 13.8 mph 27.6 mph N/A   Partly Cloudy
12:55 PM 60.8 °F - 19.4 °F 20% 29.61 in 70.0 mi WSW 12.7 mph 20.7 mph N/A   Mostly Cloudy
1:55 PM 62.6 °F - 21.2 °F 20% 29.60 in 25.0 mi West 15.0 mph 27.6 mph N/A   Mostly Cloudy
2:55 PM 60.8 °F - 21.2 °F 22% 29.61 in 25.0 mi NW 13.8 mph - N/A   Mostly Cloudy
3:55 PM 62.6 °F - 23.0 °F 22% 29.60 in 70.0 mi West 16.1 mph - N/A   Scattered Clouds
4:55 PM 59.0 °F - 24.8 °F 27% 29.62 in 70.0 mi WNW 11.5 mph - N/A   Mostly Cloudy
5:55 PM 60.8 °F - 21.2 °F 22% 29.61 in 70.0 mi WNW 10.4 mph 20.7 mph N/A   Mostly Cloudy
6:55 PM 57.2 °F - 21.2 °F 25% 29.64 in 70.0 mi WNW 8.1 mph - N/A   Mostly Cloudy
7:55 PM 51.8 °F - 24.8 °F 35% 29.63 in 70.0 mi North 9.2 mph - N/A   Mostly Cloudy
8:55 PM 53.6 °F - 24.8 °F 33% 29.62 in 25.0 mi NW 12.7 mph 24.2 mph N/A   Mostly Cloudy
9:55 PM 46.4 °F 45.2 °F 28.4 °F 50% 29.63 in 25.0 mi SW 3.5 mph - N/A   Mostly Cloudy
10:55 PM 42.8 °F 37.5 °F 26.6 °F 53% 29.62 in 25.0 mi SSE 9.2 mph - N/A   Mostly Cloudy
11:55 PM 44.6 °F 38.4 °F 26.6 °F 49% 29.60 in 25.0 mi SSE 12.7 mph - N/A   Mostly Cloudy